Regional Weather Roundup
Issued by NWS

Home | Current Version | Previous Version | Graphics & Text | Print | Product List | Glossary On
Versions: 1 2 3 4 5 6 7 8 9 10 11 12 13 14 15 16 17 18 19 20 21 22 23 24 25 26 27 28 29 30 31 32 33 34 35 36 37 38 39 40 41 42 43 44 45 46 47 48 49 50
000
ASUS43 KLOT 180503
RWRIL

ILLINOIS REGIONAL WEATHER ROUNDUP
NATIONAL WEATHER SERVICE CHICAGO/ROMEOVILLE IL
1100 PM CST FRI NOV 17 2017

NOTE: "FAIR" INDICATES FEW OR NO CLOUDS BELOW 12,000 FEET WITH NO
SIGNIFICANT WEATHER AND/OR OBSTRUCTIONS TO VISIBILITY.

* THESE STATIONS ARE NOT UNDER NWS QUALITY CONTROL. THEY ALSO MAY NOT
  REPORT WEATHER SUCH AS PRECIPITATION OR FOG.

ILZ001-002-007-009-015-016-024-180600-
NORTHWEST ILLINOIS

CITY           SKY/WX    TMP DP  RH WIND       PRES   REMARKS
MOLINE         CLOUDY    52  47  83 CALM      29.53F
STERLING*        N/A    N/A N/A N/A MISG        N/A
SAVANNA*       DRIZZLE   42  42  99 CALM      29.57F
$$

ILZ003-004-008-010-011-017-018-180600-
NORTH CENTRAL ILLINOIS

CITY           SKY/WX    TMP DP  RH WIND       PRES   REMARKS
ROCKFORD       DRIZZLE   43  42  97 N5        29.59F FOG
FREEPORT*      CLOUDY    40  40 100 N3        29.60R FOG
ROCHELLE*      RAIN      44  44 100 CALM      29.56F
DE KALB*       CLOUDY    46  45  98 S12       29.56F FOG
PERU*          CLOUDY    48  46  92 SW14      29.56F
$$

ILZ005-006-012>014-019>023-180600-
NORTHEAST ILLINOIS

CITY           SKY/WX    TMP DP  RH WIND       PRES   REMARKS
CHICAGO-OHARE  LGT RAIN  47  44  90 SW10      29.57F FOG
CHICAGO-MIDWAY LGT RAIN  48  46  93 SW15G21   29.57F FOG
AURORA         CLOUDY    46  45  96 SW6       29.57F FOG
LANSING*       DRIZZLE   46  45  94 SW10      29.59F
JOLIET*        CLOUDY    49  47  92 SW9       29.58S
WAUKEGAN       LGT RAIN  45  44  97 NW3       29.58S FOG
DUPAGE AIRPORT LGT RAIN  45  45 100 SW7       29.56F FOG
KANKAKEE*      CLOUDY    47  43  85 SW14G23   29.59F
WHEELING       LGT RAIN  47  46  97 SW7       29.58F FOG
MORRIS*        CLOUDY    48  46  92 SW13G20   29.56F
ROMEOVILLE*    HVY RAIN  47  45  94 SW10      29.57F
NORTHERLY ISL    N/A     47  43  86 S7          N/A
$$

LMZ740>746-180600-
SOUTHERN LAKE MICHIGAN

STATION/POSITION SKY/WX   TEMP    WIND        PRES    VSBY  WAVE
                          AIR SEA DIR/SP/G                  HT/PER
                          (F)     (DEG/KT/KT) (MB)    (MI)  (FT/S)
SOUTHERN BUOY              45 50  210/ 21/ 25 1002.5          8/ 7
HARRISON CRIB              47     220/ 19/ 22   N/A
BURNHAM HARBOR             47     220/  7/ 14   N/A
BURNS HARBOR               45     180/ 13/ 20 1002.7F
MICHIGAN CITY              42     160/ 11/ 14   N/A
$$

ILZ025>027-034>036-040-047-049-050-058-095>099-180600-
WEST-CENTRAL ILLINOIS

CITY           SKY/WX    TMP DP  RH WIND       PRES   REMARKS
QUINCY         CLOUDY    57  53  86 S7        29.51F
GALESBURG*     CLOUDY    53  50  89 SW6       29.55S
MACOMB*        CLOUDY    53  49  89 S12       29.55F
JACKSONVILLE*  CLOUDY    56  51  83 S8        29.54F
PITTSFIELD*    CLOUDY    58  55  90 S9        29.54F
$$

ILZ028>032-037-038-041>044-048-051>054-059>061-180600-
CENTRAL ILLINOIS

CITY           SKY/WX    TMP DP  RH WIND       PRES   REMARKS
PONTIAC        CLOUDY    49  48  97 S15G21    29.58F
BLOOMINGTON    CLOUDY    51  46  83 SW13G20   29.58F
DECATUR        CLOUDY    51  45  79 S15       29.59F
PEORIA         CLOUDY    52  48  86 S12       29.56F
LACON*         CLOUDY    51  47  87 SW7       29.55F
LINCOLN*       CLOUDY    51  47  85 S14       29.57F
SPRINGFIELD    CLOUDY    54  48  80 S14       29.57F
TAYLORVILLE    CLOUDY    54  47  78 S10G16    29.58F
$$

ILZ033-039-045-046-055>057-062-063-180600-
EAST-CENTRAL ILLINOIS

CITY           SKY/WX    TMP DP  RH WIND       PRES   REMARKS
CHAMPAIGN      CLOUDY    51  44  77 S18       29.60F
DANVILLE*      CLOUDY    50  42  73 S16G22    29.59F
RANTOUL*       CLOUDY    51  46  83 S15       29.59F
MATTOON        CLOUDY    53  43  68 S10G17    29.62F
PARIS*         CLOUDY    52  43  73 S21       29.63F
$$

ILZ079-100>102-180600-
SOUTHWEST ILLINOIS

CITY           SKY/WX    TMP DP  RH WIND       PRES   REMARKS
ALTON          CLOUDY    60  55  83 S12       29.58F
BELLEVILLE     CLOUDY    62  54  76 S8        29.59F
CAHOKIA*       CLOUDY    61  53  75 S9        29.59F
SPARTA*        MOCLDY    62  55  78 S20       29.64F
$$

ILZ064>066-069>071-074>076-080>082-084>086-088>090-092>094-180600-
SOUTH-CENTRAL ILLINOIS

CITY           SKY/WX    TMP DP  RH WIND       PRES   REMARKS
CARBONDALE     CLOUDY    64  55  72 S23G36    29.67F
CAIRO*         CLOUDY    64  55  72 S15G28    29.71F
EFFINGHAM*     CLOUDY    56  47  70 SE13G18   29.65F
MARION         CLOUDY    64  54  69 S18G26    29.69F
MT. VERNON     CLOUDY    61  53  75 S12       29.66F
CENTRALIA*     CLOUDY    61  53  75 S14       29.63F
SALEM*         CLOUDY    62  51  67 S15G22    29.63F
METROPOLIS*    CLOUDY    65  54  67 S15G25    29.72F
$$

ILZ067-068-072-073-078-083-087-091-180600-
SOUTHEAST ILLINOIS

CITY           SKY/WX    TMP DP  RH WIND       PRES   REMARKS
LAWRENCEVILLE  CLOUDY    57  42  57 S21       29.69F
FLORA*         CLOUDY    57  47  69 S13       29.66F
FAIRFIELD*     CLOUDY    57  47  69 S7        29.67F
HARRISBURG*    CLOUDY    64  53  69 S13G25    29.70F
ROBINSON*      CLOUDY    56  41  58 S16G23    29.68F
CARMI*         CLOUDY    58  49  71 S10       29.70S
$$

ABBREVIATIONS USED IN REMARKS
   TC - TEMPERATURE IN CELSIUS
  WCI - WIND CHILL INDEX
   HX - HEAT INDEX
  VSB - VISIBILITY
$$




USA.gov is the U.S. government's official web portal to all federal, state and local government web resources and services.